P/2021 P5 ( Scotti )

Japanese version
Home page
Updated on September 18, 2021

---------------------------------------------------------------------

* Profile

Recovery Date August 2, 2021
Magnitude 20.3 mag
Recoverer F. Kugel (Chante-Perdrix Observatory)

* Orbital Elements

Epoch 2022 Mar. 2.0 TT = JDT 2459640.5                                          
T 2022 Feb. 13.36824 TT                                 Rudenko                 
q   1.8136785            (2000.0)            P               Q                  
n   0.15232046     Peri.  199.85680     +0.74482386     -0.65066265             
a   3.4724065      Node   202.84612     +0.65204935     +0.75679827             
e   0.4776883      Incl.   22.39208     +0.14166531     -0.06240590             
P   6.47                                                                        
From 386 observations 2015 Aug. 18-2021 Aug. 16, mean residual 0".8.            

* Magnitudes Graph

        m1 = 15.5 + 5 log d + 10.0 log r

---------------------------------------------------------------------

The orbital elements are published on M.P.E.C. 2021-Q75.
The magnitudes graphs are made with Comet for Windows.

---------------------------------------------------------------------

Copyright(C) Seiichi Yoshida (comet@aerith.net). All rights reserved.